SPACEMOBILE-001

Last updated on Tue Sep 15 2026 00:02:16 GMT+0000 (Coordinated Universal Time)

1 61047U 24163C 26257.05797929 -.00000700 00000+0 -16859-4 0 9995 2 61047 52.9705 260.4992 0007474 35.5243 324.6247 15.20426564111280
UTC large
Height (km)
Speed (km/s)
/
Latitude / Longitude
Inclination (degrees)
Orbital Period (minutes)
Azimuth
Elevation
Range (km)
Doppler Factor

Next 0 passes for location: London (51.5072 / 0.1276)

No passes found over London.
SPACEMOBILE-001